Zurück zum Katalog

STARLINK-37666

AktivKommunikationSSO
NORAD 69046·PAYLOAD·🇺🇸 United States

Gestartet May 6, 2026 von Vandenberg Space Force Base

Loading…

Nächste Überflüge (nächste 24 Stunden)

TLE

AktuellSource: CelesTrak SupGP

Epoche: Sep 14, 2026, 23:33 UTC

1 69046C 26101X   26257.98173611  .00091341  00000+0  28356-2 0  2573
2 69046  97.2848 111.6155 0001721  92.6708  54.4807 15.33391030    15

Verfolge STARLINK-37666 in Echtzeit mit AllMySat

Download on the App Store